Flag for United Kingdom Weather past 2 weeks in Dudley, England, United Kingdom

Now
57 °F

Passing clouds.


Feels Like: 54 °F
Forecast: 45 / 53 °F
Wind: 13 mph from West

Location: Birmingham / Airport

Current Time: May 28, 2015 at 5:37:18 PM

Latest Report: May 28, 2015 at 5:20 PM


Visibility: N/A

Pressure: 29.92 "Hg

Humidity: 39%

Dew point: 32 °F

Location of DudleyLocation

Historic Weather in Dudley — Graph

°F

Dudley temperature yesterday

Maximum temperature yesterday: 63 °F (at 2:20 PM)
Minimum temperature yesterday: 45 °F (at 3:50 AM)
Average temperature yesterday: 54 °F

Past Weeks' High & Low Weather Summary

 TemperatureHumidityPressure
High66 °F (May 21, 4:50 PM)100% (May 18, 8:20 AM)30.33 "Hg (May 18, 8:20 AM)
Low43 °F (May 19, 3:50 AM)34% (May 28, 2:20 PM)29.50 "Hg (May 19, 2:50 AM)
Average53 °F69%30.07 "Hg
* Reported May 13 4:20 PM — May 28 4:20 PM, Dudley, Weather by CustomWeather, © 2015

Note: Actual official high and low records may vary slightly from our data, if they occured in-between our weather recording intervals... More about our weather records

Advertising

Dudley weather history for previous 24 hours

 ConditionsComfort  
Time TempWeatherWind HumidityBarometerVisibility
4:20 PM
Thu, May 28
59 °FPassing clouds.14 mph36%29.92 "HgN/A
3:50 PM59 °FPassing clouds.13 mph36%29.95 "HgN/A
3:20 PM59 °FPassing clouds.12 mph39%29.95 "HgN/A
2:50 PM59 °FPassing clouds.14 mph36%29.95 "HgN/A
2:20 PM59 °FScattered clouds.14 mph34%29.95 "HgN/A
1:50 PM59 °FPartly sunny.14 mph39%29.95 "HgN/A
1:20 PM57 °FScattered clouds.12 mph48%29.95 "HgN/A
12:50 PM57 °FBroken clouds.13 mph44%29.95 "HgN/A
12:20 PM55 °FScattered clouds.12 mph55%29.95 "HgN/A
11:50 AM50 °FSprinkles. Broken clouds.13 mph76%29.95 "HgN/A
11:20 AM55 °FScattered showers. Scattered clouds.9 mph51%29.95 "HgN/A
10:50 AM55 °FScattered showers. Scattered clouds.12 mph44%29.95 "HgN/A
10:20 AM55 °FScattered clouds.10 mph51%29.95 "HgN/A
9:50 AM54 °FScattered clouds.10 mph54%29.95 "HgN/A
9:20 AM54 °FBroken clouds.13 mph54%29.95 "HgN/A
8:50 AM52 °FScattered clouds.12 mph62%29.95 "HgN/A
8:20 AM52 °FPartly sunny.13 mph62%29.92 "HgN/A
7:50 AM50 °FScattered clouds.10 mph67%29.92 "HgN/A
7:20 AM50 °FScattered clouds.9 mph71%29.92 "HgN/A
6:50 AM50 °FScattered clouds.9 mph71%29.92 "HgN/A
6:20 AM48 °FPassing clouds.7 mph76%29.92 "HgN/A
5:50 AM48 °FPassing clouds.8 mph76%29.89 "HgN/A
5:20 AM48 °FClear.9 mph76%29.89 "Hg10 mi
4:50 AM48 °FClear.12 mph76%29.89 "Hg10 mi
4:20 AM50 °FPassing clouds.13 mph76%29.89 "HgN/A
3:50 AM50 °FClear.12 mph82%29.89 "Hg10 mi
3:20 AM50 °FPassing clouds.10 mph82%29.89 "HgN/A
2:50 AM52 °FCool.12 mph82%29.89 "HgN/A
2:20 AM52 °FPassing clouds.9 mph88%29.89 "HgN/A
1:50 AM52 °FLight rain. Passing clouds.8 mph88%29.89 "HgN/A
1:20 AM50 °FPassing clouds.8 mph94%29.92 "HgN/A
12:50 AM52 °FPassing clouds.9 mph82%29.92 "HgN/A
12:20 AM52 °FPassing clouds.10 mph82%29.92 "HgN/A
11:50 PM
Wed, May 27
52 °FPassing clouds.10 mph77%29.92 "HgN/A
11:20 PM52 °FPassing clouds.12 mph77%29.92 "HgN/A
10:50 PM52 °FPassing clouds.10 mph77%29.95 "HgN/A
10:20 PM52 °FPassing clouds.12 mph72%29.95 "HgN/A
9:50 PM52 °FScattered clouds.15 mph72%29.98 "HgN/A
9:20 PM54 °FScattered clouds.15 mph63%29.98 "HgN/A
8:50 PM54 °FScattered clouds.15 mph58%29.95 "HgN/A
8:20 PM57 °FPassing clouds.14 mph44%29.95 "HgN/A
7:50 PM57 °FPassing clouds.9 mph55%29.98 "HgN/A
7:20 PM57 °FSprinkles. Passing clouds.8 mph59%29.98 "HgN/A
6:50 PM59 °FScattered showers. Passing clouds.9 mph55%30.01 "HgN/A
6:20 PM59 °FLight rain. Scattered clouds.12 mph51%30.01 "HgN/A
5:50 PM61 °FScattered clouds.12 mph52%30.04 "HgN/A
5:20 PM61 °FScattered clouds.9 mph55%30.04 "HgN/A
Weather by CustomWeather, © 2015

See weather overviewHow to use our weather pages